Hourly Data Report for January 05, 2018

All times are specified in Local Standard Time (LST). Add 1 hour to adjust for Daylight Saving Time where and when it is observed.

VANCOUVER INTL A
BRITISH COLUMBIA

49°11'41.000" N
123°11'02.000" W
4.30 m
1108395
71892
YVR

Download Data

Hourly Data (January 2018)
Hourly Data Report for January 5, 2018
Temp Definition
°C
Dew Point Temp Definition
°C
Rel Hum Definition
%
Wind Dir Definition
10's deg

Wind Spd Definition
km/h
Visibility Definition
km
Stn Press Definition
kPa
Hmdx Definition


Wind Chill Definition


Weather Definition


TIME
00:00 Legend Double Dagger 5.5 4.4 92 14 14 32.2 101.51     Rain
01:00 Legend Double Dagger 5.6 4.2 91 10 4 32.2 101.49     Rain
02:00 Legend Double Dagger 4.9 4.0 94 36 2 32.2 101.49     Rain
03:00 Legend Double Dagger 4.8 4.2 97 36 2 32.2 101.44     Rain
04:00 Legend Double Dagger 4.7 4.2 96 36 3 32.2 101.43     Cloudy
05:00 Legend Double Dagger 4.8 4.4 97 36 3 32.2 101.38     LegendNANA
06:00 Legend Double Dagger 4.9 4.6 98 21 5 32.2 101.36     LegendNANA
07:00 Legend Double Dagger 5.1 4.7 97 0 1 24.1 101.36     Cloudy
08:00 Legend Double Dagger 5.2 4.7 97 35 7 24.1 101.36     LegendNANA
09:00 Legend Double Dagger 6.8 6.2 96 5 9 19.3 101.37     Rain
10:00 Legend Double Dagger 7.0 6.5 97 10 15 12.9 101.41     Rain
11:00 Legend Double Dagger 7.2 6.8 97 11 11 12.9 101.40     Rain
12:00 Legend Double Dagger 7.6 7.3 97 9 8 8.1 101.34     Rain,Fog
13:00 Legend Double Dagger 7.9 7.6 98 12 12 8.1 101.32     Rain,Fog
14:00 Legend Double Dagger 8.3 7.9 97 9 15 12.9 101.32     Rain
15:00 Legend Double Dagger 8.5 8.0 97 7 16 24.1 101.33     Rain
16:00 Legend Double Dagger 8.9 8.2 96 9 21 12.9 101.36     Moderate Rain
17:00 Legend Double Dagger 8.6 8.2 97 9 19 12.9 101.36     Moderate Rain
18:00 Legend Double Dagger 9.1 8.4 96 9 18 24.1 101.37     Rain
19:00 Legend Double Dagger 9.3 8.6 95 8 14 32.2 101.40     Rain
20:00 Legend Double Dagger 9.3 8.4 94 9 12 32.2 101.44     LegendNANA
21:00 Legend Double Dagger 9.0 8.5 96 8 13 16.1 101.43     Rain Showers
22:00 Legend Double Dagger 8.9 8.5 97 8 7 19.3 101.50     Rain Showers
23:00 Legend Double Dagger 6.5 6.1 97 30 20 24.1 101.59     Rain

Notes on Data Quality.

Legend

  • E = Estimated
  • M = Missing
  • NA = Not Available
  • ‡ = Partner data that is not subject to review by the National Climate Archives
Date modified: